Kosmos-586

operational
NORAD ID: 6828 Int'l Des: 1973-065 Owner: VMF Country: SU
LEOCIRCULARPOLAR

Kosmos-586について

説明を読み込み中...

リアルタイム位置

3D地球を読み込み中...

次回通過

高度履歴

Altitude vs Time

uPlot chart will show altitude changes over time

軌道要素

1 06828U 73065A 26063.46954160 .00000057 00000-0 43434-4 0 9991
2 06828 82.9374 240.7953 0028545 132.1428 257.3065 13.75368184632504
Epoch: Mar 4, 2026 • Age: 19 hours

現在のステータス

高度 967.1 km
速度 7.38 km/s
衛星直下点 6.28°N, 27.03°W
タイプ other

大規模コンステレーション

Loading constellations...